Regional Weather Roundup
Issued by NWS

Home | Current Version | Previous Version | Text Only | Print | Product List | Glossary Off
Versions: 1 2 3 4 5 6 7 8 9 10 11 12 13 14 15 16 17 18 19 20 21 22 23 24 25 26 27 28

000
ASUS45 KCYS 301310
RWRWY

WYOMING REGIONAL WEATHER ROUNDUP
NATIONAL WEATHER SERVICE CHEYENNE WY
700 AM MDT TUE AUG 30 2016

NOTE:  "FAIR" INDICATES FEW OR NO CLOUDS BELOW 12,000 FEET
WITH NO SIGNIFICANT WEATHER AND/OR OBSTRUCTIONS TO VISIBILITY.

WYZ001-301400-
YELLOWSTONE NATIONAL PARK

CITY           SKY/WX    TMP DP  RH WIND       PRES   REMARKS
LK YELLOWSTONE   N/A     37  34  89 NW3       30.48R
W YELLOWSTONE  NOT AVBL

$$
WYZ002>013-054>058-071-098>099-301400-
NORTHERN WYOMING

CITY           SKY/WX    TMP DP  RH WIND       PRES   REMARKS
JACKSON        CLEAR    N/A N/A N/A MISG      30.38S
CODY           FAIR      63  36  36 S7        30.24R
GREYBULL       FAIR      62  40  44 CALM      30.19R
WORLAND        FAIR      65  41  41 SE10      30.21S
SHERIDAN       FAIR      54  42  64 S3        30.17S
BUFFALO        FAIR      62  37  39 S7        30.26S
GILLETTE       FAIR      64  53  67 S12       30.25R
HULETT         FAIR      59  52  77 E3        30.28R
NEWCASTLE      FAIR      59  54  82 CALM      30.30R

$$
WYZ014>020-022>026-101>103-301400-
CENTRAL WYOMING

CITY           SKY/WX    TMP DP  RH WIND       PRES   REMARKS
BIG PINEY      FAIR      42  29  59 N5        30.44R
PINEDALE       FAIR      36  32  87 W6        30.44R WCI  31
DUBOIS         FAIR      48  28  46 NW10      30.43S
LANDER         FAIR      58  35  42 W5        30.34S
RIVERTON       FAIR      52  39  61 CALM      30.33R
CASPER         FAIR      47  45  93 CALM      30.33R
DOUGLAS        FAIR      48  46  93 NW3       30.33R

$$
WYZ021-027>030-104>119-301400-
SOUTHERN WYOMING

CITY           SKY/WX    TMP DP  RH WIND       PRES   REMARKS
EVANSTON       FAIR      53  27  36 E8        30.38R
FORT BRIDGER   FAIR      53  27  37 CALM      30.42R
ROCK SPRINGS   FAIR      52  34  50 NE6       30.39R
DIXON          FAIR      43  35  73 CALM      30.42R
RAWLINS        FAIR      45  34  65 N5        30.42R
SARATOGA       FAIR      41  36  81 MISG      30.44R
LARAMIE        FAIR      39  36  89 S5        30.44R
CHEYENNE       FAIR      52  43  71 W7        30.38R
TORRINGTON     FAIR      53  51  93 CALM      30.29R
PINE BLUFFS    FAIR      50  46  87 CALM      30.33S

$$




USA.gov is the U.S. government's official web portal to all federal, state and local government web resources and services.